sat.trackr.live / text

‹ back to catalog

NTS-3

NORAD 65160 · 2025-173A

PAYLOAD ACTIVE UNKNOWN

§ Identity

Operator
Country
US
Launch date
2025-08-13
Launch site
AFETR
Launch vehicle
Mass (kg)
RCS (m²)

External: N2YO · Heavens-Above · Gunter

§ Orbital elements

Epoch: 2026-09-21T20:06:24.456384Z

Period
1,430.59 min
Inclination
3.4763°
Eccentricity
0.0001252
Mean motion
1.00658120 rev/d
Perigee alt
35,673.4 km
Apogee alt
35,683.9 km
Semi-major
42,056.8 km
B*
0.0000e+0
RAAN
70.6904°
Arg perigee
135.1935°
Mean anomaly
57.5555°
Rev number
100

§ Raw data

NTS-31 65160U 25173A   26264.83778306 -.00000216  00000+0  00000+0 0  99962 65160   3.4763  70.6904 0001252 135.1935  57.5555  1.00658120  1002

JSON: /api/v1/satellites/65160 · /tle

For live sub-satellite position, see the globe view (requires WebGL).

§ Visibility from observer

Set your observer location to see the next 7 days of passes ≥ 10°. The values pass through the URL so the page stays shareable.

No JS? Fill the form by hand. The geolocation button needs JavaScript.